Regional Weather Roundup
Issued by NWS Charleston, SC

Current Version | Previous Version | Graphics & Text | Print | Product List | Glossary On
Versions: 1 2 3 4 5 6 7 8 9 10 11 12 13 14 15 16 17 18 19 20 21 22 23 24 25 26 27 28 29 30 31 32 33 34 35 36 37 38 39 40 41 42 43 44 45 46 47 48 49 50
000 ASUS42 KCHS 181112 RWRCHS REGIONAL WEATHER ROUNDUP NATIONAL WEATHER SERVICE CHARLESTON SC 600 AM EST SAT NOV 18 2017 NOTE: "FAIR" INDICATES FEW OR NO CLOUDS BELOW 12,000 FEET WITH NO SIGNIFICANT WEATHER AND/OR OBSTRUCTIONS TO VISIBILITY. NOT ALL STATIONS ARE QUALITY CONTROLLED. USE DATA WITH CAUTION... ESPECIALLY DEWPOINT OBSERVATIONS. SCZ027-030-031-034>040-042>050-181200- ...SOUTHEAST SOUTH CAROLINA... CITY SKY/WX TMP DP RH WIND PRES REMARKS N CHARLESTON PTCLDY 44 44 100 CALM 30.07F WATERFRONT PRK NOT AVBL JOHNS ISLAND PTSUNNY 48 48 100 CALM 30.07S PINOPOLIS N/A 48 45 87 SE5 30.00F MONCKS CORNER FAIR 37 37 100 CALM 30.07S SUMMERVILLE FAIR 37 36 93 CALM 30.08S BEAUFORT MCAS MOCLDY 51 51 100 NE5 30.07S BEAUFORT ARPT FAIR 54 52 94 NE6 30.06S FOG HILTON HEAD IS NOT AVBL WALTERBORO MOSUNNY 39 37 93 CALM 30.08S ALLENDALE CLOUDY 45 43 93 CALM 30.06S ...SOUTHERN MIDLANDS AND PEE DEE... CITY SKY/WX TMP DP RH WIND PRES REMARKS GEORGETOWN FAIR 37 36 93 CALM 30.09R KINGSTREE FAIR 34 32 93 CALM 30.07F ORANGEBURG MOCLDY 40 38 93 CALM 30.08S BARNWELL N/A 43 41 93 CALM 30.07S AIKEN FAIR 36 34 93 CALM 30.09F MANNING FAIR 36 36 100 MISG 30.07F COLUMBIA PTCLDY 37 35 92 CALM 30.07F SUMTER PTCLDY 40 37 89 CALM 30.05S FLORENCE PTCLDY 37 36 96 CALM 30.08S MYRTLE BEACH CLEAR 41 39 93 N3 30.09F N MYRTLE BEACH CLEAR 38 38 100 CALM 30.08F $$ GAZ063-065-086>088-099>101-113>116-118-119-134>141-150-181200- ...SOUTHEAST GEORGIA... CITY SKY/WX TMP DP RH WIND PRES REMARKS SAVANNAH ARPT PTCLDY 51 50 96 CALM 30.06S HUNTER AAF PTCLDY 52 50 91 CALM 30.03S FORT STEWART PTCLDY 49 47 93 CALM 30.03S STATESBORO MOCLDY 45 45 100 CALM 30.06F SYLVANIA PTSUNNY 45 45 100 CALM 30.06F CLAXTON FAIR 45 44 98 CALM 30.06S ...CSRA...CENTRAL AND FAR SOUTHEAST GEORGIA... CITY SKY/WX TMP DP RH WIND PRES REMARKS THOMSON CLEAR 36 35 96 CALM 30.11S AUGUSTA-BUSH MOCLDY 39 38 96 CALM 30.07S AUGUSTA-DANIEL PTCLDY 47 43 86 SE5 30.07S SWAINSBORO FAIR 48 48 100 CALM 30.06S FOG VIDALIA CLEAR 46 46 100 CALM 30.06S EASTMAN CLOUDY 41 35 79 CALM 30.08S HAZLEHURST FAIR 53 51 93 CALM 30.04F ALMA FOG 47 46 97 CALM 30.04F VSB 1/4 WAYCROSS FOG 47 45 91 CALM 30.05S VSB 1 JESUP FAIR 50 46 87 CALM 30.06S FOG BAXLEY FAIR 45 45 100 CALM 30.04F FOG BRUNSWICK FOG 50 46 87 CALM 30.05R VSB 1/2 SAINT SIMONS CLEAR 55 55 100 CALM 30.04R FOG $$ SCZ027-028-034-036>038-045-046-048>050-GAZ119-141-181200- ...LAKE AND SUPPLEMENTAL COASTAL OBSERVATIONS... STATION/POSITION TIME TEMP WIND PRES WAVE SWELL AIR SEA DIR/SP/G HT/PER HT/PER/DIR (UTC) (F) (DEG/KT/KT) (MB) (FT/S) (FT/S/D) WINYAH BAY 0945 42 CALM 1019.0 LAKE MURRAY 1020 49 90/ 3/ 4 1017.6 ACE BASIN NERRS 0945 49 CALM 1018.0 FORT PULASKI NOT AVBL SAPELO ISLAND 1000 54 20/ 5 1017.0 $$ ANZ835-935-AMZ111-154-330-350-352-354-370-450-454-472-181200- ...C-MAN AND BUOY OBSERVATIONS... STATION/POSITION TIME TEMP WIND PRES WAVE SWELL AIR SEA DIR/SP/G HT/PER HT/PER/DIR (UTC) (F) (DEG/KT/KT) (MB) (FT/S) (FT/S/D) BUOY 41004 1050 68 76 90/ 6/ 10 1017.6R 3/11 3/ 80/11 BUOY 41008 1050 69 68 80/ 10/ 12 1016.5R 3/ 7 3/ 90/ 7 FOLLY BEACH CMAN 1100 61 60/ 6/ 7 1018.6F CAPERS NEARSHORE 1008 58 62 80/ 10/ 16 1017.9R FRIPP NEARSHORE 1008 60 62 70/ 8/ 14 1017.3R STATION/POSITION TIME TEMP WIND PRES WAVE SWELL AIR SEA DIR/SP/G HT/PER HT/PER/DIR (UTC) (F) (DEG/KT/KT) (MB) (FT/S) (FT/S/D) 5E ST. MARYS GA 1100 67 N/A 3/ 7 2/ 80/12 FRYING PAN BUOY 1050 62 71 360/ 8/ 10 1018.3F 3/10 3/ 80/10 BUOY 41025 1100 55 64 20/ 4/ 6 1019.3 CAPE LOOKOUT NC 1000 50 360/ 6/ 6 1019.3F BUOY 41002 1050 68 77 190/ 4/ 6 1018.5R 7/ 9 7/360/ 9 BUOY 41010 NOT AVBL ST AUGUSTINE FL 1100 60 67 300/ 3/ 3 1017.1R $$

USA.gov is the U.S. government's official web portal to all federal, state and local government web resources and services.